Date String (YYYY-MM-DD hh:mm:ss) UTC,Instrument flags,absolute air pressure of the measurement (hPa),sample flow rate (lpm),inlet stack bypass flow (lpm),air temperature of the measurement (°C),ambient temperature measured by the external sensor (°C),aerosol sample conditioner tube jacket temperature (°C),OPC LED temperature (°C),internal box temperature (°C),relative humidity of the measurement (%),span deviation,mass concentration of particles derived from Lorenz-Mie calculation of OPC scattering (μg/m³),mass concentration of particles derived from Lorenz-Mie calculation of OPC scattering (μg/m³),mass concentration of particles derived from Lorenz-Mie calculation of OPC scattering (μg/m³)
DateTimeUTC,F1_M11,P_M11,Q1_M11,Q2_M11,T1_M11,T2_M11,T3_M11,T4_M11,T5_M11,U1_M11,ZSPAN_M11,X0_M11,X2_M11,X1_M11
2023-12-23 11:00:00,SystemResetWarning,0821.8,5.00,000.00,024.0,023.0,000.0,032.3,025.4,12.4,0000.0,0009.41,0004.48,0004.11
2023-12-23 11:01:00,SystemResetWarning,0821.8,5.00,000.00,024.0,023.0,000.0,032.3,025.5,12.4,0000.0,0009.81,0004.49,0004.11
2023-12-23 11:02:00,SystemResetWarning,0821.9,5.00,000.00,024.0,023.0,000.0,032.3,025.5,12.4,0000.0,0010.00,0004.49,0004.11
2023-12-23 11:03:00,SystemResetWarning,0821.9,5.01,000.00,024.0,023.0,000.0,032.3,025.4,12.4,0000.0,0009.61,0004.51,0004.13
2023-12-23 11:04:00,SystemResetWarning,0822.0,4.99,000.00,024.0,023.0,000.0,032.3,025.4,12.4,0000.0,0009.21,0004.51,0004.15
2023-12-23 11:05:00,SystemResetWarning,0821.9,5.00,000.00,024.0,023.0,000.0,032.3,025.5,12.4,0000.0,0009.17,0004.59,0004.22
2023-12-23 11:06:00,SystemResetWarning,0822.0,5.00,000.00,024.0,023.1,000.0,032.3,025.5,12.4,0000.0,0009.26,0004.67,0004.28
2023-12-23 11:07:00,SystemResetWarning,0822.0,5.00,000.00,024.0,023.1,000.0,032.3,025.4,12.4,0000.0,0009.32,0004.70,0004.30
2023-12-23 11:08:00,SystemResetWarning,0821.9,5.00,000.00,024.0,023.1,000.0,032.3,025.4,12.4,0000.0,0009.51,0004.74,0004.33
2023-12-23 11:09:00,SystemResetWarning,0821.8,5.00,000.00,024.0,023.1,000.0,032.3,025.5,12.7,0000.0,0009.58,0004.78,0004.36
2023-12-23 11:10:00,SystemResetWarning,0821.8,5.00,000.00,024.0,023.1,000.0,032.3,025.5,12.8,0000.0,0009.71,0004.84,0004.41
2023-12-23 11:11:00,SystemResetWarning,0821.8,5.00,000.00,024.0,023.1,000.0,032.3,025.5,12.8,0000.0,0009.22,0004.88,0004.43
2023-12-23 11:12:00,SystemResetWarning,0821.8,5.00,000.00,024.0,023.1,000.0,032.4,025.4,12.6,0000.0,0008.83,0004.90,0004.46
2023-12-23 11:13:00,SystemResetWarning,0821.8,5.00,000.00,024.0,023.1,000.0,032.4,025.4,12.6,0000.0,0008.46,0004.88,0004.46
2023-12-23 11:14:00,SystemResetWarning,0821.8,4.99,000.00,024.0,023.1,000.0,032.4,025.4,12.7,0000.0,0008.34,0004.87,0004.46
2023-12-23 11:15:00,SystemResetWarning,0821.9,4.99,000.00,024.0,023.1,000.0,032.4,025.4,12.7,0000.0,0009.19,0004.87,0004.44
2023-12-23 11:16:00,SystemResetWarning,0821.9,5.00,000.00,024.0,023.1,000.0,032.3,025.4,12.8,0000.0,0009.73,0004.85,0004.42
2023-12-23 11:17:00,SystemResetWarning,0822.0,5.00,000.00,024.0,023.1,000.0,032.3,025.4,12.8,0000.0,0009.97,0004.85,0004.42
2023-12-23 11:18:00,SystemResetWarning,0821.9,5.01,000.00,024.0,023.1,000.0,032.3,025.4,12.7,0000.0,0010.01,0004.87,0004.43
2023-12-23 11:19:00,SystemResetWarning,0821.9,5.00,000.00,024.0,023.1,000.0,032.3,025.4,12.6,0000.0,0009.90,0004.85,0004.43
2023-12-23 11:20:00,SystemResetWarning,0821.8,5.01,000.00,024.0,023.1,000.0,032.3,025.4,12.6,0000.0,0010.10,0004.85,0004.41
2023-12-23 11:21:00,SystemResetWarning,0821.8,5.00,000.00,024.0,023.1,000.0,032.3,025.4,12.5,0000.0,0010.42,0004.82,0004.41
2023-12-23 11:22:00,SystemResetWarning,0821.8,5.00,000.00,024.0,023.1,000.0,032.3,025.4,12.5,0000.0,0010.19,0004.81,0004.41
2023-12-23 11:23:00,SystemResetWarning,0821.8,4.99,000.00,024.0,023.1,000.0,032.3,025.4,12.5,0000.0,0010.13,0004.81,0004.41
2023-12-23 11:24:00,SystemResetWarning,0821.8,5.00,000.00,024.0,023.1,000.0,032.3,025.4,12.5,0000.0,0010.25,0004.83,0004.42
2023-12-23 11:25:00,SystemResetWarning,0821.8,5.00,000.00,024.0,023.1,000.0,032.3,025.4,12.5,0000.0,0010.55,0004.86,0004.45
2023-12-23 11:26:00,SystemResetWarning,0821.8,5.00,000.00,024.0,023.1,000.0,032.3,025.4,12.5,0000.0,0009.78,0004.89,0004.47
2023-12-23 11:27:00,SystemResetWarning,0821.7,5.00,000.00,024.0,023.1,000.0,032.3,025.4,12.5,0000.0,0009.32,0004.93,0004.50
2023-12-23 11:28:00,SystemResetWarning,0821.7,5.00,000.00,024.0,023.1,000.0,032.3,025.4,12.5,0000.0,0009.00,0004.91,0004.52
2023-12-23 11:29:00,SystemResetWarning,0821.7,5.00,000.00,024.0,023.1,000.0,032.3,025.4,12.5,0000.0,0009.11,0004.89,0004.53
2023-12-23 11:30:00,SystemResetWarning,0821.7,5.00,000.00,024.0,023.1,000.0,032.3,025.4,12.4,0000.0,0009.67,0004.91,0004.54
2023-12-23 11:31:00,SystemResetWarning,0821.7,4.99,000.00,024.0,023.0,000.0,032.3,025.4,12.5,0000.0,0009.59,0004.93,0004.56
2023-12-23 11:32:00,SystemResetWarning,0821.7,5.01,000.00,024.0,023.0,000.0,032.3,025.4,12.4,0000.0,0009.12,0004.96,0004.57
2023-12-23 11:33:00,SystemResetWarning,0821.7,5.01,000.00,024.0,023.0,000.0,032.3,025.4,12.4,0000.0,0009.51,0004.95,0004.56
2023-12-23 11:34:00,SystemResetWarning,0821.8,5.00,000.00,024.0,023.0,000.0,032.3,025.4,12.6,0000.0,0009.59,0004.95,0004.56
2023-12-23 11:35:00,SystemResetWarning,0821.8,4.99,000.00,024.0,023.0,000.0,032.3,025.4,12.6,0000.0,0009.98,0004.95,0004.56
2023-12-23 11:36:00,SystemResetWarning,0821.8,4.99,000.00,024.0,023.0,000.0,032.3,025.3,13.0,0000.0,0010.67,0004.94,0004.56
2023-12-23 11:37:00,SystemResetWarning,0821.8,5.00,000.00,024.0,023.0,000.0,032.3,025.4,13.0,0000.0,0010.64,0004.91,0004.55
2023-12-23 11:38:00,SystemResetWarning,0821.8,5.01,000.00,024.0,023.0,000.0,032.3,025.3,13.0,0000.0,0010.50,0004.87,0004.53
2023-12-23 11:39:00,SystemResetWarning,0821.8,5.01,000.00,024.0,023.0,000.0,032.3,025.3,12.9,0000.0,0010.42,0004.85,0004.52
2023-12-23 11:40:00,SystemResetWarning,0821.8,4.99,000.00,024.0,022.9,000.0,032.3,025.3,12.9,0000.0,0010.50,0004.87,0004.50
2023-12-23 11:41:00,SystemResetWarning,0821.8,4.99,000.00,024.0,022.9,000.0,032.3,025.3,12.8,0000.0,0010.39,0004.87,0004.50
2023-12-23 11:42:00,SystemResetWarning,0821.7,5.00,000.00,024.0,022.9,000.0,032.3,025.4,12.7,0000.0,0010.34,0004.88,0004.49
2023-12-23 11:43:00,SystemResetWarning,0821.7,5.00,000.00,024.0,022.9,000.0,032.3,025.4,12.7,0000.0,0010.30,0004.86,0004.48
2023-12-23 11:44:00,SystemResetWarning,0821.7,5.00,000.00,024.0,022.9,000.0,032.3,025.3,12.8,0000.0,0010.03,0004.87,0004.47
2023-12-23 11:45:00,SystemResetWarning,0821.7,5.01,000.00,024.0,022.9,000.0,032.3,025.3,12.8,0000.0,0009.87,0004.85,0004.46
2023-12-23 11:46:00,SystemResetWarning,0821.7,5.00,000.00,024.0,023.0,000.0,032.3,025.3,12.7,0000.0,0010.25,0004.83,0004.45
2023-12-23 11:47:00,SystemResetWarning,0821.7,4.99,000.00,024.0,023.0,000.0,032.3,025.4,12.6,0000.0,0009.23,0004.83,0004.44
2023-12-23 11:48:00,SystemResetWarning,0821.7,5.00,000.00,024.0,023.0,000.0,032.3,025.4,12.6,0000.0,0009.20,0004.84,0004.44
2023-12-23 11:49:00,SystemResetWarning,0821.7,5.00,000.00,024.0,023.0,000.0,032.3,025.4,12.6,0000.0,0009.24,0004.83,0004.43
2023-12-23 11:50:00,SystemResetWarning,0821.6,5.00,000.00,024.0,023.0,000.0,032.3,025.4,12.5,0000.0,0009.47,0004.83,0004.41
2023-12-23 11:51:00,SystemResetWarning,0821.6,4.99,000.00,024.0,023.0,000.0,032.3,025.4,12.5,0000.0,0009.83,0004.78,0004.40
2023-12-23 11:52:00,SystemResetWarning,0821.6,5.00,000.00,024.0,023.0,000.0,032.3,025.4,12.5,0000.0,0009.21,0004.76,0004.39
2023-12-23 11:53:00,SystemResetWarning,0821.6,5.01,000.00,024.0,023.0,000.0,032.3,025.4,12.5,0000.0,0009.04,0004.72,0004.39
2023-12-23 11:54:00,SystemResetWarning,0821.7,5.01,000.00,024.0,023.0,000.0,032.3,025.4,12.5,0000.0,0009.07,0004.71,0004.39
2023-12-23 11:55:00,SystemResetWarning,0821.8,5.00,000.00,024.0,023.0,000.0,032.3,025.4,12.5,0000.0,0009.66,0004.72,0004.38
2023-12-23 11:56:00,SystemResetWarning,0821.7,5.00,000.00,024.0,023.0,000.0,032.3,025.4,12.5,0000.0,0009.72,0004.74,0004.39
2023-12-23 11:57:00,SystemResetWarning,0821.8,4.99,000.00,024.0,023.1,000.0,032.3,025.4,12.5,0000.0,0009.16,0004.72,0004.39
2023-12-23 11:58:00,SystemResetWarning,0821.7,5.00,000.00,024.0,023.1,000.0,032.3,025.3,12.5,0000.0,0009.10,0004.72,0004.39
2023-12-23 11:59:00,SystemResetWarning,0821.7,4.99,000.00,024.0,023.1,000.0,032.3,025.3,12.5,0000.0,0009.27,0004.76,0004.41
